Location: Unspecified
(0.0000°N, 0.0000°E)
Time: 13:40:43
(UTC+00:00)

deb OV3-4 - Pass Details

Date: 17 June 2025
Orbit: 581 x 4212 km, 40.6° (Epoch: 19 July)

Event Time Altitude Azimuth Distance (km) Brightness Sun altitude
Rises 21:03:50 0° 316° (NW) 8,300 ? -41.0°
Reaches altitude 10° 21:09:28 10° 318° (NW) 7,385 ? -42.2°
Maximum altitude 21:35:40 82° 45° (NE) 3,586 ? -47.6°
Enters shadow 21:36:34 81° 74° (ENE) 3,542 ? -47.8°
